Wetbulb
35.66 35.19 33.86 34.98 35.35 35.35 35.82 36.88 36.46 36.42 36.16 36.52 37.84 39.16 36.75 36.80 37.24 38.46 40.36 43.18 43.91 42.20 43.31 44.55 47.89 48.04 48.11 48.69 48.63 51.36 54.15 56.74
33.90 34.99 34.01 34.59 34.53 36.08 36.00 35.92 35.68 36.31 36.10 35.45 35.16 35.45 35.10 36.10 37.37 39.55 41.62 43.18 43.01 42.74 42.61 44.07 45.52 46.96 47.09 47.99 48.24 49.46 52.99 56.86
34.87 32.70 32.06 33.09 33.68 34.99 35.28 35.59 36.30 36.30 36.07 35.45 34.50 34.22 35.15 35.89 36.82 38.97 43.09 43.63 44.43 45.44 43.28 43.32 44.27 45.61 46.25 46.55 47.02 47.66 51.34 54.55
33.26 33.41 30.72 31.31 32.87 33.78 35.41 35.70 35.96 36.57 37.08 36.47 35.49 35.19 35.42 35.29 35.59 37.85 42.67 44.91 44.83 45.53 44.54 42.92 43.96 45.36 45.20 45.63 46.35 46.40 47.12 52.39
32.75 31.68 30.60 32.29 32.62 33.67 34.79 35.71 36.19 37.29 36.49 33.86 32.90 33.15 33.08 35.31 36.75 37.94 39.46 41.25 44.15 45.01 43.43 42.22 42.49 45.20 45.54 45.45 46.76 46.36 47.34 48.51
32.26 31.70 30.85 31.87 32.23 32.61 34.36 35.38 35.96 36.21 35.60 34.94 33.36 32.27 33.58 34.19 35.12 36.59 37.01 38.56 40.09 40.91 40.87 41.39 41.41 44.03 45.74 45.40 45.45 45.91 47.23 48.15
32.47 32.75 32.91 31.60 31.51 32.62 32.81 34.13 35.30 34.79 34.39 34.43 34.21 32.68 32.75 32.87 34.03 35.42 36.56 37.35 38.50 39.35 41.07 41.27 44.49 44.34 45.69 44.97 45.74 46.33 46.71 47.97
31.96 32.03 31.64 32.06 31.45 32.12 33.17 33.78 34.08 34.33 34.42 34.57 34.85 33.58 33.00 33.36 33.30 35.49 36.37 37.38 39.01 39.47 41.07 42.33 43.85 44.60 45.33 45.14 45.61 46.44 46.92 47.39
32.17 32.77 31.92 32.79 33.11 32.76 33.39 34.24 34.46 34.68 34.29 34.46 35.67 35.61 34.84 35.44 36.91 38.38 38.37 38.75 41.29 42.80 42.40 43.61 43.54 44.19 44.57 45.55 45.93 46.58 47.66 48.50
32.89 32.72 32.78 32.60 32.88 33.36 33.27 33.96 34.78 35.00 34.76 34.21 34.14 35.94 36.35 36.78 39.94 41.58 40.66 38.83 40.88 40.65 42.52 42.96 42.84 43.51 43.90 44.73 45.73 45.90 46.85 47.34
32.77 33.38 33.40 33.30 33.19 33.94 33.24 34.24 34.63 34.77 34.34 34.26 35.58 35.50 37.78 40.66 40.56 40.39 38.58 37.42 37.84 39.12 42.06 42.52 42.26 41.98 42.08 43.15 44.90 45.24 45.42 45.76
32.47 32.63 33.62 33.79 33.47 33.42 33.70 34.29 33.94 33.62 34.27 34.85 34.88 36.09 37.69 38.95 38.28 39.30 38.46 37.89 37.76 39.40 41.86 42.30 40.35 40.09 40.75 41.64 43.23 44.25 43.95 44.07
32.83 32.96 33.49 32.60 33.25 33.22 33.84 33.59 33.47 34.00 35.10 35.52 35.52 36.56 37.61 36.97 37.68 40.62 38.67 37.95 40.36 40.77 42.06 40.48 38.80 38.91 39.45 40.09 41.84 43.13 42.70 42.51
33.68 33.53 34.05 33.86 33.10 33.79 33.86 33.77 33.45 34.61 35.65 35.18 35.02 35.21 36.11 35.86 35.90 37.80 39.62 39.80 40.40 40.87 40.83 38.10 37.49 37.87 37.87 39.06 41.21 41.68 42.21 42.31
34.36 33.27 33.95 34.19 34.64 34.33 34.43 34.04 34.04 34.86 34.81 35.08 34.26 34.18 35.93 35.45 36.13 37.78 38.56 39.76 39.88 40.27 38.60 35.78 35.65 36.89 36.77 37.59 39.89 39.97 40.21 40.76
36.05 33.97 33.33 33.93 34.20 34.39 34.83 34.51 34.85 34.60 34.42 33.83 33.23 34.85 36.12 36.32 35.95 36.03 39.14 39.00 38.15 40.75 37.46 34.66 33.57 34.46 35.29 35.64 37.31 38.43 37.24 37.96
38.27 36.40 35.44 35.05 35.89 34.61 35.45 34.77 34.79 34.77 34.10 34.08 35.10 35.79 36.95 35.91 35.25 35.63 35.92 35.62 35.53 36.44 36.02 32.92 30.72 33.24 34.75 35.86 35.78 37.52 35.50 34.35
39.61 37.58 36.13 35.42 35.12 35.67 33.99 34.45 35.38 34.27 34.39 35.48 36.02 35.68 36.86 35.88 35.15 35.27 35.22 33.58 33.09 33.63 34.67 33.31 31.25 29.80 33.80 34.68 35.36 36.14 33.50 32.02
39.72 38.25 36.03 35.43 35.35 34.65 34.52 35.49 34.81 34.55 34.47 35.43 36.50 35.78 35.26 35.97 34.52 34.38 33.77 33.12 31.90 31.48 32.73 33.77 32.56 32.33 33.17 33.38 33.74 35.92 32.61 30.60
MSLP
1023.97 1024.01 1024.13 1024.01 1023.78 1023.90 1024.47 1025.06 1025.39 1025.31 1025.22 1024.96 1024.64 1024.19 1023.89 1023.96 1023.69 1023.53 1023.12 1022.86 1022.55 1022.67 1022.50 1022.09 1021.51 1020.92 1020.12 1020.34 1019.45 1018.60 1017.80 1017.46
1024.17 1024.24 1024.23 1024.23 1024.25 1024.40 1024.71 1025.01 1025.24 1025.15 1025.18 1025.07 1024.81 1024.61 1024.31 1023.94 1023.80 1023.34 1023.01 1022.78 1022.75 1022.57 1022.50 1022.27 1021.67 1021.04 1020.77 1020.36 1019.20 1018.48 1017.86 1017.11
1024.16 1024.17 1024.33 1024.60 1024.80 1024.85 1025.16 1025.27 1025.19 1025.13 1025.11 1025.04 1025.04 1024.87 1024.63 1024.34 1023.91 1023.51 1023.00 1022.98 1022.96 1022.67 1022.61 1022.34 1021.90 1021.26 1021.03 1020.19 1019.37 1019.00 1018.14 1017.23
1024.04 1024.20 1024.55 1024.72 1025.04 1025.25 1025.23 1025.21 1025.11 1024.99 1024.83 1024.84 1024.75 1024.67 1024.63 1024.42 1024.08 1023.68 1023.16 1023.07 1022.88 1022.84 1022.51 1022.27 1021.89 1021.29 1020.81 1020.36 1019.85 1019.63 1018.72 1017.52
1023.94 1024.29 1024.77 1024.89 1025.11 1025.04 1025.05 1025.14 1024.98 1024.84 1024.71 1024.88 1024.99 1025.02 1025.13 1024.78 1024.38 1023.82 1023.54 1023.17 1022.77 1022.65 1022.36 1022.20 1021.85 1021.30 1020.80 1020.45 1020.10 1019.32 1018.77 1017.92
1024.00 1024.36 1024.77 1024.93 1025.09 1025.11 1025.05 1024.99 1024.87 1024.72 1024.72 1024.68 1024.82 1024.97 1024.76 1024.54 1024.23 1023.78 1023.48 1023.30 1022.82 1022.76 1022.44 1022.02 1021.72 1021.19 1020.59 1020.39 1019.67 1019.44 1018.78 1018.30
1023.90 1024.36 1024.65 1024.96 1025.16 1025.16 1025.04 1024.87 1024.62 1024.68 1024.63 1024.68 1024.66 1024.67 1024.62 1024.52 1024.25 1023.98 1023.66 1023.35 1022.95 1022.67 1022.36 1021.96 1021.51 1021.13 1020.80 1020.41 1020.01 1019.07 1018.69 1018.58
1023.99 1024.31 1024.66 1024.88 1025.03 1025.00 1024.87 1024.67 1024.60 1024.53 1024.59 1024.60 1024.51 1024.38 1024.34 1024.32 1024.30 1024.05 1023.59 1023.30 1022.92 1022.59 1022.16 1021.79 1021.61 1021.15 1020.68 1019.99 1019.58 1019.19 1019.13 1018.66
1023.71 1024.07 1024.41 1024.64 1024.65 1024.65 1024.59 1024.49 1024.53 1024.61 1024.67 1024.68 1024.56 1024.47 1024.38 1024.17 1024.03 1023.79 1023.59 1023.38 1022.83 1022.23 1021.81 1021.71 1021.67 1021.23 1020.65 1020.25 1019.78 1019.35 1018.87 1018.85
1023.40 1023.83 1024.07 1024.33 1024.39 1024.36 1024.32 1024.43 1024.60 1024.69 1024.76 1024.70 1024.61 1024.47 1024.35 1024.32 1024.09 1023.91 1023.72 1023.40 1022.67 1022.27 1021.82 1021.80 1021.65 1021.28 1020.88 1020.52 1019.82 1019.73 1019.52 1019.32
1023.20 1023.51 1023.78 1023.91 1023.94 1024.12 1024.29 1024.30 1024.51 1024.65 1024.59 1024.54 1024.62 1024.49 1024.32 1024.29 1024.19 1023.95 1023.73 1023.46 1022.97 1022.39 1021.88 1021.89 1021.77 1021.45 1021.04 1020.69 1020.31 1020.03 1019.78 1019.57
1022.82 1023.11 1023.45 1023.49 1023.70 1024.02 1024.18 1024.33 1024.45 1024.60 1024.52 1024.54 1024.52 1024.53 1024.40 1024.35 1024.19 1024.02 1023.85 1023.53 1023.04 1022.37 1022.07 1022.13 1022.14 1021.66 1021.34 1021.06 1020.73 1020.40 1020.01 1019.76
1022.26 1022.55 1022.98 1023.37 1023.44 1023.68 1023.93 1024.20 1024.30 1024.32 1024.36 1024.45 1024.53 1024.48 1024.48 1024.35 1024.17 1023.97 1023.84 1023.60 1022.83 1022.31 1022.28 1022.46 1022.42 1022.11 1021.77 1021.50 1021.17 1020.82 1020.82 1020.34
1021.83 1022.24 1022.51 1022.80 1023.21 1023.48 1023.79 1023.96 1024.05 1023.98 1024.14 1024.29 1024.42 1024.46 1024.43 1024.40 1024.16 1023.87 1023.67 1023.47 1022.95 1022.62 1022.52 1022.85 1022.80 1022.74 1022.40 1022.01 1021.71 1021.39 1021.17 1020.78
1021.37 1021.83 1021.91 1022.40 1022.81 1023.05 1023.39 1023.68 1023.76 1023.81 1023.98 1024.25 1024.39 1024.44 1024.39 1024.32 1024.19 1023.92 1023.66 1023.37 1023.16 1023.09 1023.09 1023.36 1023.39 1023.33 1023.07 1022.82 1022.40 1022.07 1021.68 1021.44
1020.59 1021.12 1021.56 1022.05 1022.45 1022.67 1023.03 1023.43 1023.60 1023.62 1023.81 1024.08 1024.24 1024.21 1024.30 1024.32 1024.20 1024.00 1023.84 1023.64 1023.38 1023.10 1023.51 1023.76 1023.79 1023.56 1023.45 1023.23 1022.87 1022.42 1022.15 1021.97
1019.90 1020.22 1020.87 1021.43 1021.87 1022.37 1022.74 1023.14 1023.39 1023.39 1023.61 1023.72 1023.77 1024.00 1024.17 1024.20 1024.11 1024.06 1024.04 1023.92 1023.75 1023.72 1023.76 1023.79 1023.94 1023.97 1023.82 1023.45 1023.24 1023.08 1022.88 1022.72
1019.24 1019.63 1020.10 1020.70 1021.44 1021.79 1022.48 1022.92 1023.22 1023.44 1023.45 1023.45 1023.52 1023.73 1024.04 1024.13 1023.98 1023.92 1023.98 1024.03 1023.92 1023.94 1023.96 1024.00 1024.14 1024.12 1023.94 1023.71 1023.49 1023.35 1023.30 1023.10
1018.75 1019.16 1019.72 1020.50 1021.02 1021.54 1022.06 1022.48 1022.77 1023.08 1023.28 1023.33 1023.37 1023.48 1023.63 1023.82 1024.00 1023.99 1023.92 1023.81 1023.84 1023.93 1024.04 1024.07 1024.15 1024.13 1023.96 1023.71 1023.44 1023.45 1023.61 1023.51
Wind_Speed
4 4 5 6 6 6 9 7 6 4 2 1 1 1 2 3 4 4 6 4 4 4 4 5 5 5 5 6 6 4 4 3
2 3 5 6 7 9 8 8 4 3 1 1 2 3 3 3 4 5 6 5 4 3 4 5 5 6 5 7 5 4 2 4
3 2 5 6 5 7 7 6 5 3 1 1 1 2 2 2 3 4 4 6 7 7 5 5 5 5 6 6 6 3 3 2
4 3 4 5 8 7 8 7 6 4 3 1 2 2 2 3 4 3 4 3 7 9 5 5 5 4 5 6 6 5 3 2
3 4 5 7 6 5 6 5 4 4 3 1 1 1 1 3 3 2 2 4 2 5 5 5 5 4 5 5 5 5 4 3
7 6 7 6 6 6 6 5 4 3 3 4 2 1 2 2 2 3 3 4 5 5 5 6 5 4 4 6 7 6 3 2
6 5 6 5 4 5 4 4 2 1 3 4 5 2 2 2 3 3 4 3 4 5 6 5 5 4 4 5 6 6 5 4
7 7 5 5 7 6 4 3 3 3 3 1 1 2 1 2 2 2 4 3 3 5 4 5 4 4 5 6 7 5 4 4
7 7 7 7 7 7 5 3 4 4 3 4 3 3 2 1 2 3 3 3 3 5 5 4 5 5 6 6 5 4 6 4
7 7 7 7 7 8 7 4 6 5 4 3 3 4 4 4 4 3 2 4 4 5 4 5 6 6 7 7 4 4 5 4
6 7 7 6 6 6 5 5 7 5 4 3 2 3 3 5 3 2 4 5 5 5 4 4 5 6 8 8 5 6 5 5
7 7 7 7 5 6 6 6 6 5 4 3 2 3 5 3 3 4 5 5 6 4 5 4 6 7 7 7 8 7 7 7
7 7 7 7 7 7 7 6 6 5 6 4 3 3 4 3 3 3 5 5 5 4 5 5 6 7 7 8 8 8 7 8
5 5 7 7 6 6 6 6 6 5 6 5 3 2 3 1 3 4 4 5 6 5 6 6 6 7 8 8 7 7 7 8
5 5 6 7 6 7 7 6 6 5 6 5 3 3 3 1 1 4 5 6 4 4 6 5 5 5 7 7 7 6 7 7
6 6 7 6 7 7 6 6 6 5 4 5 4 5 4 1 1 3 4 4 4 4 6 5 5 5 5 6 6 6 6 6
6 7 8 7 8 7 7 7 6 5 5 4 4 5 5 3 1 2 4 3 5 5 5 5 6 4 11 11 6 4 6 5
7 7 8 7 7 8 8 7 6 6 4 4 3 5 5 4 3 1 3 1 3 4 4 5 5 4 8 10 9 4 4 5
7 6 6 7 6 7 7 7 7 6 6 5 4 4 4 5 3 1 2 2 2 2 3 3 3 2 7 8 6 3 4 4
Wind_Direction
108 99 66 52 49 127 128 134 137 117 114 314 322 328 347 328 320 354 321 276 299 336 326 320 318 314 353 303 307 297 261 279
140 79 90 93 67 108 124 125 136 101 74 289 294 309 325 339 333 340 0 324 347 345 328 316 323 324 324 310 314 315 272 220
134 101 77 69 112 119 111 122 137 127 165 262 251 296 303 296 303 324 62 58 16 338 326 315 319 328 310 336 347 323 285 315
162 131 77 112 124 140 150 168 158 174 186 340 337 10 342 337 335 333 353 11 58 313 321 318 315 321 329 329 337 321 301 304
164 143 106 137 159 159 157 165 175 201 197 175 99 162 262 267 252 289 336 352 239 289 337 319 320 305 310 323 306 320 317 321
178 152 148 170 168 159 160 189 225 230 193 191 159 207 231 271 295 335 341 323 337 336 315 319 315 310 312 310 326 314 317 315
166 150 146 142 156 152 182 206 259 19 135 163 163 196 296 334 310 335 331 320 311 328 311 309 311 306 324 314 295 321 346 317
172 166 156 149 150 170 166 164 62 122 121 81 339 300 3 358 340 310 322 336 298 314 308 339 319 340 323 325 319 329 319 326
185 180 177 169 162 167 161 135 104 120 88 80 55 10 16 4 297 328 339 303 301 322 342 353 342 340 341 326 303 324 336 310
185 177 187 180 172 183 172 137 116 128 130 110 41 32 23 6 343 37 336 302 329 335 15 10 343 349 344 332 348 347 335 326
178 188 193 198 190 180 169 137 141 159 150 112 89 17 28 66 13 35 341 326 327 333 25 9 350 352 354 350 347 2 350 340
196 198 203 199 181 169 172 144 143 148 165 135 80 20 61 77 49 338 336 323 312 1 23 24 358 2 360 359 351 12 6 346
203 196 190 185 190 172 172 159 155 156 169 154 133 89 93 49 57 332 340 325 323 7 54 43 12 9 2 1 1 18 8 3
210 176 190 186 180 173 171 170 174 165 150 168 163 138 125 107 351 347 339 322 335 359 83 44 29 17 9 1 4 15 14 19
210 201 194 181 183 171 169 178 175 163 128 175 182 196 191 134 346 356 349 342 334 41 92 67 33 31 21 9 4 17 20 24
218 192 196 187 181 181 166 168 172 171 143 147 181 190 196 207 13 352 349 21 8 52 84 57 36 27 15 5 2 18 20 23
225 192 185 187 181 182 171 173 180 165 159 173 184 147 180 211 225 327 20 9 52 66 88 70 41 18 353 1 15 17 28 37
212 203 185 179 175 169 168 173 162 177 173 210 189 158 176 207 225 36 21 55 68 74 103 102 76 27 8 5 5 50 22 18
210 201 172 167 166 163 157 161 171 177 193 217 215 196 170 194 237 292 172 141 71 85 125 121 99 37 8 5 15 114 65 29